Regional Weather Roundup
Issued by NWS

Home | Current Version | Previous Version | Graphics & Text | Print | Product List | Glossary On
Versions: 1 2 3 4 5 6 7 8 9 10 11 12 13 14 15 16 17 18 19 20 21 22 23 24 25 26 27 28 29 30 31 32 33 34 35 36 37 38 39 40 41 42 43 44 45 46 47 48 49 50
427
ASUS43 KIND 230509
RWRIN

WEATHER ROUNDUP FOR INDIANA
NATIONAL WEATHER SERVICE INDIANAPOLIS IN
100 AM EDT SAT JUL 23 2016

NOTE: "FAIR" INDICATES FEW OR NO CLOUDS BELOW 12,000 FEET WITH NO
SIGNIFICANT WEATHER AND/OR OBSTRUCTIONS TO VISIBILITY.

* - STATION DOES NOT REPORT WEATHER SUCH AS PRECIPITATION OR FOG.

+ - STATION NOT QUALITY CONTROLLED BY THE NATIONAL WEATHER SERVICE.
    USE DATA WITH CAUTION...ESPECIALLY DEWPOINT AND RELATIVE
    HUMIDITY OBSERVATIONS.

INZ001>003-010>013-019-020-230600-
NORTHWEST INDIANA

CITY           SKY/WX    TMP DP  RH WIND       PRES   REMARKS
GARY /AIRPORT/ CLOUDY    82  82  99 CALM      30.01R HX  95
KNOX *+        CLEAR     73  72  94 SW5       30.01R
LA PORTE +     CLEAR    N/A N/A N/A SW5       30.02R
MICHIGAN CITY+ CLEAR     72  72 100 CALM      30.02R
MONTICELLO +   CLEAR     74  70  87 CALM      30.01S
RENSSELAER +   MOCLDY    73  72  94 CALM      30.03S
VALPARAISO     PTCLDY    77  73  87 SW6       30.02R

$$

LMZ046-743>745-230600-
SOUTHERN LAKE MICHIGAN

STATION/POSITION TIME  TEMP    WIND        PRES    WAVE
                       AIR SEA DIR/SP/G            HT
                 (UTC) (F)     (DEG/KT/KT) (MB)    (FT)
BURNS HARBOR     0400   80     190/  7/ 11 1015.9S
MICHIGAN CITY    0400   80     150/  5/  6   N/A
5NW MICH CITY    0500   77 76  190/  6/  6   N/A     0

$$

INZ004-005-014>016-021>024-230600-
NORTH CENTRAL INDIANA

CITY           SKY/WX    TMP DP  RH WIND       PRES   REMARKS
GOSHEN         CLEAR     73  68  84 S3        30.02R
LOGANSPORT +   CLEAR     72  72 100 CALM      30.03S
PERU/GRISSOM   MOCLDY    74  73  96 W2        30.01S
ROCHESTER +    CLEAR     79  75  89 W5        30.02S
SOUTH BEND     CLEAR     74  71  91 CALM      30.01S
WARSAW +       CLEAR     75  72  88 SW3       30.02S

$$

INZ006>009-017-018-025>027-230600-
NORTHEAST INDIANA

CITY           SKY/WX    TMP DP  RH WIND       PRES   REMARKS
ANGOLA *+      CLEAR     72  64  78 CALM      30.01S
AUBURN +       CLEAR     73  70  88 W3        30.02S
FORT WAYNE     PTCLDY    73  70  90 W5        30.01F
HUNTINGTON +   CLEAR    N/A N/A N/A W3        30.02S

$$

INZ028-029-035-036-043>045-051>053-230600-
WEST CENTRAL INDIANA

CITY           SKY/WX    TMP DP  RH WIND       PRES   REMARKS
CRAWFORDSVL +  CLEAR     69  69 100 CALM      30.03F FOG
GREENCASTLE +  CLEAR     72  72 100 CALM      30.04F
LAFAYETTE      CLEAR     74  74 100 CALM      30.01S
TERRE HAUTE    CLEAR     74  71  91 N3        30.02F

$$

INZ030>032-037>040-046>048-054>057-064-065-230600-
CENTRAL INDIANA

CITY           SKY/WX    TMP DP  RH WIND       PRES   REMARKS
FRANKFORT +    PTCLDY   N/A N/A N/A CALM      30.05S
INDIANAPOLIS   CLEAR     77  71  82 W3        30.03S
-EAGLE CREEK   CLEAR     78  72  81 CALM      30.02S
KOKOMO *+      CLEAR     72  66  83 CALM      30.03R
MARION +       CLEAR     71  70  96 CALM      30.03S
MT COMFORT *+  CLEAR     72  70  94 CALM      30.04S
SHELBYVILLE    FOG       75  71  87 CALM      30.02F VSB 1/4
ZIONSVILLE +   CLEAR     70  70  98 CALM      30.04F

$$

INZ033-034-041-042-049-050-058-059-230600-
EAST CENTRAL INDIANA

CITY           SKY/WX    TMP DP  RH WIND       PRES   REMARKS
MUNCIE         CLEAR     74  71  91 CALM      30.03S

$$

INZ060-061-067>069-081>083-085>088-230600-
SOUTHWEST INDIANA

CITY           SKY/WX    TMP DP  RH WIND       PRES   REMARKS
EVANSVILLE     CLEAR     77  74  90 CALM      30.01F
HUNTINGBURG *+ CLEAR     75  72  88 CALM      30.01F
WASHINGTON +   CLEAR     74  74 100 MISG      30.01F FOG

$$

INZ062-063-066-070>080-084-089>092-230600-
SOUTH CENTRAL AND SOUTHEAST INDIANA

CITY           SKY/WX    TMP DP  RH WIND       PRES   REMARKS
BLOOMINGTON    CLEAR     76  73  91 CALM      30.03F
MADISON *+     CLEAR     73  72  94 CALM      30.06F
NORTH VERNON + CLEAR    N/A N/A N/A CALM      30.04F
SEYMOUR +      CLEAR     75  73  94 CALM      30.02F FOG

$$





USA.gov is the U.S. government's official web portal to all federal, state and local government web resources and services.